Brize Norton, United Kingdom

6:01 AM BST on April 27, 2018 (GMT +0100)
Brize Norton Air Base

Weather History for EGVN - January, 2014

Change the Weather History Date:

Friday, January 10, 2014

  Actual Average Record
Temperature  
Mean Temperature 40 °F -  
Max Temperature 48 °F 44 °F 55 °F (2015)
Min Temperature 31 °F 34 °F 23 °F (2000)
Degree Days  
Heating Degree Days 26    
Moisture  
Dew Point 39 °F    
Average Humidity 88    
Maximum Humidity 100    
Minimum Humidity 74    
Precipitation  
Precipitation 0.01 in - - ()
Sea Level Pressure  
Sea Level Pressure 29.92 in    
Wind  
Wind Speed 5 mph ()    
Max Wind Speed 9 mph    
Max Gust Speed -    
Visibility 10.7 miles    
Events Rain    
Averages and records for this station are not official NWS values.
T = Trace of Precipitation, MM = Missing Value Source: Averaged Metar Reports

Daily Weather History Graph

Daily Weather History Graph

Search for Another Location

Airport or City:

Astronomy

Jan. 10, 2014 Rise Set
Actual Time 8:10 AM GMT 4:17 PM GMT
Civil Twilight 7:30 AM GMT 4:57 PM GMT
Nautical Twilight 6:48 AM GMT 5:39 PM GMT
Astronomical Twilight 6:07 AM GMT 6:20 PM GMT
Moon 12:24 PM GMT (1/10) 2:49 AM GMT (1/10)
Length of Visible Light 9h 26m
Length of Day
8h 07m
Waxing Gibbous, 73% of the Moon is Illuminated
Jan 10
Waxing Gibbous
Jan 16
Full
Jan 24
Last Quarter
Jan 30
New
Feb 6
First Quarter

Hourly Weather History & Observations

Time (GMT) Temp. Windchill Dew Point Humidity Pressure Visibility Wind Dir Wind Speed Gust Speed Precip Events Conditions
12:50 AM 37.4 °F 32.1 °F 35.6 °F 93% 29.92 in 6.2 mi WSW 6.9 mph - N/A   Partly Cloudy
1:00 AM 37 °F - 36 °F 93% 29.94 in 16 mi WSW 6.9 mph - -   Scattered Clouds
1:50 AM 37.4 °F 32.8 °F 35.6 °F 93% 29.89 in 6.2 mi SW 5.8 mph - N/A   Partly Cloudy
2:00 AM 37 °F - 36 °F 93% 29.92 in 19 mi SW 5.8 mph - -   Scattered Clouds
2:50 AM 37.4 °F 34.9 °F 35.6 °F 93% 29.92 in - SW 3.5 mph - N/A   Clear
3:00 AM 37 °F - 35 °F 92% 29.94 in 19 mi SW 3.5 mph - -  
3:50 AM 35.6 °F 32.8 °F 35.6 °F 100% 29.92 in - WSW 3.5 mph - N/A   Clear
4:00 AM 36 °F - 35 °F 94% 29.95 in 12 mi WSW 3.5 mph - -   Scattered Clouds
4:50 AM 35.6 °F 32.8 °F 33.8 °F 93% 29.92 in 6.2 mi West 3.5 mph - N/A   Partly Cloudy
5:00 AM 35 °F - 34 °F 93% 29.95 in 11 mi West 3.5 mph - -   Scattered Clouds
5:50 AM 33.8 °F - 33.8 °F 100% 29.92 in 6.2 mi Calm Calm - N/A   Partly Cloudy
6:00 AM 35 °F - 34 °F 93% 29.95 in 11 mi Calm Calm - -   Scattered Clouds
6:50 AM 33.8 °F - 32.0 °F 93% 29.92 in 6.2 mi WSW 2.3 mph - N/A   Partly Cloudy
7:00 AM 33 °F - 32 °F 96% 29.95 in 6 mi WSW 2.3 mph - -   Scattered Clouds
7:50 AM 32.0 °F 27.5 °F 30.2 °F 93% 29.95 in 5.0 mi NE 4.6 mph - N/A   Scattered Clouds
8:00 AM 31 °F - 30 °F 94% 29.96 in 5 mi NE 4.6 mph - -   Mist
8:50 AM 33.8 °F 30.8 °F 32.0 °F 93% 29.95 in 3.7 mi NNE 3.5 mph - N/A   Scattered Clouds
9:00 AM 33 °F - 32 °F 95% 29.97 in 4 mi NNE 3.5 mph - -   Mist
9:50 AM 37.4 °F - 37.4 °F 100% 29.95 in 6.2 mi NNW 1.2 mph - N/A   Scattered Clouds
10:00 AM 38 °F - 37 °F 97% 29.96 in 9 mi NNW 1.2 mph - -   Scattered Clouds
10:50 AM 42.8 °F - 39.2 °F 87% 29.92 in - SW 2.3 mph - N/A   Clear
11:00 AM 42 °F - 38 °F 82% 29.95 in 16 mi SW 2.3 mph - -   Partly Cloudy
11:50 AM 44.6 °F - 39.2 °F 81% 29.92 in 6.2 mi SW 2.3 mph - N/A   Mostly Cloudy
12:00 PM 44 °F - 40 °F 80% 29.94 in 19 mi SW 2.3 mph - -   Scattered Clouds
12:50 PM 46.4 °F 42.9 °F 41.0 °F 81% 29.92 in 6.2 mi SSW 6.9 mph - N/A   Mostly Cloudy
1:00 PM 46 °F - 41 °F 77% 29.92 in 19 mi SSW 6.9 mph - -   Mostly Cloudy
1:50 PM 48.2 °F - 42.8 °F 82% 29.89 in 6.2 mi SSW 9.2 mph - N/A   Mostly Cloudy
2:00 PM 48 °F - 42 °F 74% 29.91 in 19 mi SSW 9.2 mph - -   Partly Cloudy
2:50 PM 48.2 °F - 42.8 °F 82% 29.89 in 6.2 mi SSW 8.1 mph - N/A   Mostly Cloudy
3:00 PM 48 °F - 43 °F 75% 29.91 in 12 mi SSW 8.1 mph - -   Scattered Clouds
3:50 PM 46.4 °F 42.9 °F 42.8 °F 87% 29.89 in - South 6.9 mph - N/A   Clear
4:00 PM 47 °F - 42 °F 79% 29.90 in 19 mi South 6.9 mph - -   Mostly Cloudy
4:50 PM 46.4 °F 43.5 °F 42.8 °F 87% 29.89 in - SSW 5.8 mph - N/A   Clear
5:00 PM 46 °F - 43 °F 84% 29.90 in 19 mi SSW 5.8 mph - -   Mostly Cloudy
5:50 PM 46.4 °F 43.5 °F 42.8 °F 87% 29.89 in - SSW 5.8 mph - N/A   Clear
6:00 PM 46 °F - 43 °F 84% 29.90 in 19 mi SSW 5.8 mph - -   Mostly Cloudy
6:50 PM 46.4 °F 42.4 °F 42.8 °F 87% 29.89 in 6.2 mi SSW 8.1 mph - N/A   Light Drizzle
7:00 PM 46 °F - 43 °F 85% 29.90 in 16 mi SSW 8.1 mph - - Rain Light Drizzle
7:50 PM 46.4 °F 42.4 °F 42.8 °F 87% 29.89 in 6.2 mi SSW 8.1 mph - N/A   Mostly Cloudy
8:00 PM 47 °F - 43 °F 82% 29.90 in 16 mi SSW 8.1 mph - - Rain Light Drizzle
8:50 PM 46.4 °F 42.4 °F 42.8 °F 87% 29.89 in 6.2 mi SSW 8.1 mph - N/A Rain Light Rain
9:00 PM 47 °F - 43 °F 82% 29.90 in 16 mi SSW 8.1 mph - - Rain Light Rain
9:50 PM 46.4 °F 42.9 °F 42.8 °F 87% 29.89 in 6.2 mi SSW 6.9 mph - N/A Rain Light Rain
10:00 PM 46 °F - 43 °F 84% 29.90 in 12 mi SSW 6.9 mph - - Rain Light Rain
10:50 PM 46.4 °F 42.4 °F 42.8 °F 87% 29.89 in 6.2 mi South 8.1 mph - N/A Rain Light Rain
11:00 PM 46 °F - 43 °F 84% 29.89 in 16 mi South 8.1 mph - - Rain Light Rain
11:50 PM 46.4 °F 44.3 °F 42.8 °F 87% 29.86 in 6.2 mi SSW 4.6 mph - N/A   Mostly Cloudy